Location: Home
(42.5358°N, 72.7383°W)
Time: 16:22:02
(UTC-04:00)

Kosmos-337 - Pass Details

Date: 12 July 2022
Orbit: 1467 x 1552 km, 74.0° (Epoch: 18 August)

Event Time Altitude Azimuth Distance (km) Brightness Sun altitude
Rises 00:07:00 0° 341° (NNW) 4,730 ? -24.5°
Reaches altitude 10° 00:10:04 10° 345° (NNW) 3,740 ? -24.6°
Maximum altitude 00:19:07 60° 65° (ENE) 1,729 ? -24.9°
Enters shadow 00:23:41 31° 131° (SE) 2,409 ? -25.0°
